Find Starlink 11593

NORAD ID: 63318 Int'l Des: 2025-057 Owner: SPXS Country: US Constellation: starlink operational
LEOCIRCULAR

当前视图

正在加载3D地球...

About Starlink 11593

Starlink 11593 (NORAD 63318) is a starlink constellation satellite (v2 mini d2c) launched Mar 18, 2025 by SPXS of US. It operates in LEO, CIRCULAR orbit with a mass of 960.00 kg.

关于 Starlink 11593

正在加载描述...

即将过境

Passes for default location (London). Set your location on the main map for personalized predictions.

高度历史

Loading altitude history...

两行轨道根数

1 63318U 25057M 26165.92872968 .00205000 00000-0 15593-2 0 9993
2 63318 42.9984 38.1501 0001184 229.2216 130.8549 15.70881324 72508
Epoch: Jun 14, 2026 • Age: 32 hours

当前状态

高度 358.3 km
速度 7.70 km/s
星下点 41.51°N, 96.43°E
发射日期 Mar 18, 2025
运行时间 1.2 years
类型 internet

技术详情

分类 Payload
质量 960.00 kg
干质量 910.00 kg
总质量 960.00 kg
长度 0.30 m
直径 4.10 m
跨度 29.00 m
形状 Box + pan
制造商 SPXS
平台类型 Starlink V2MD
阶段状态 In Orbit
所有者/国家 SPXS/US

Most Searched